Simultaneous Nadir Overpasses (SNOs) Predictions

Prediction of SNOs between AQUA and METOP-A Satellite Orbit:

Table of predicted SNOs for the next 14.0 days since TLE Epoch: 3/14/2014
Index Date (AQUA) Time (AQUA) Lat,Lon (AQUA) SZA (AQUA ) Date (METOP-A) Time (METOP-A) Lat,Lon (METOP-A) SZA (METOP-A ) Distance(km) Time Diff (sec)
1 03/16/2014 00:29:14 73.93, 166.83 75.85 03/16/2014 00:28:31 73.93, 166.83 75.87 0.66 43
2 03/16/2014 01:18:41 -74.00, -25.70 104.08 03/16/2014 01:19:12 -73.98, -25.73 104.11 2.74 31
3 03/18/2014 20:03:33 73.92,-126.73 74.73 03/18/2014 20:02:51 73.91,-126.83 74.72 3.44 42
4 03/18/2014 20:53:00 -74.00, 40.74 105.21 03/18/2014 20:53:31 -74.01, 40.74 105.21 1.04 31
5 03/21/2014 15:37:51 73.94, -60.34 73.63 03/21/2014 15:37:10 73.92, -60.39 73.61 3.03 41
6 03/21/2014 16:27:18 -74.01, 107.14 106.31 03/21/2014 16:27:50 -74.02, 107.19 106.31 1.82 32
7 03/24/2014 11:12:06 73.93, 6.11 72.50 03/24/2014 11:11:28 73.92, 6.03 72.50 2.90 38
8 03/24/2014 12:01:33 -74.00, 173.60 107.44 03/24/2014 12:02:08 -74.03, 173.62 107.43 2.74 35
9 03/27/2014 06:46:21 73.95, 72.52 71.40 03/27/2014 06:45:46 73.96, 72.55 71.42 1.67 35
10 03/27/2014 07:35:48 -74.01,-119.98 108.54 03/27/2014 07:36:27 -74.02,-119.98 108.54 0.76 39




NCC Satellite Simultaneous Nadir Overpasses (SNOs) Prediction Service
